Regional Weather Roundup
Issued by NWS

Home | Current Version | Previous Version | Text Only | Print | Product List | Glossary Off
Versions: 1 2 3 4 5 6 7 8 9 10 11 12 13 14 15 16 17 18 19 20 21 22 23 24 25 26 27 28 29 30 31 32 33 34 35 36 37 38 39 40 41 42 43 44 45 46 47 48 49 50

000
ASUS43 KBIS 180310
RWRND

NORTH DAKOTA REGIONAL WEATHER ROUNDUP
NATIONAL WEATHER SERVICE BISMARCK ND
900 PM CST TUE JAN 17 2017

NOTE: "FAIR" INDICATES FEW OR NO CLOUDS BELOW 12,000 FEET WITH NO
SIGNIFICANT WEATHER AND/OR OBSTRUCTIONS TO VISIBILITY.


NDZ001>003-009>011-017-180400-
NORTHWEST NORTH DAKOTA

CITY           SKY/WX    TMP DP  RH WIND       PRES   REMARKS
WILLISTON      FAIR      27  20  75 SE3       29.72S
MINOT          FAIR      38  25  59 SW16      29.66R
MINOT AFB      CLOUDY    32  25  75 W14       29.64R
$$

NDZ018>021-031>035-040>046-180400-
SOUTHWEST NORTH DAKOTA

CITY           SKY/WX    TMP DP  RH WIND       PRES   REMARKS
BISMARCK       FAIR      31  19  61 SW7       29.76S
DICKINSON      FAIR      29  21  72 W12       29.74F WCI  19
GARRISON         N/A     29  22  75 W12       29.70R WCI  19
HETTINGER ARPT CLOUDY    30  19  63 W6        29.82S
$$

NDZ004>008-012>016-024-026-027-054-180400-
NORTHEAST NORTH DAKOTA

CITY           SKY/WX    TMP DP  RH WIND       PRES   REMARKS
GRAND FORKS    CLOUDY    22  16  78 S15       29.73R WCI   9
GRND FRKS AFB  CLOUDY    26  17  69 SW12      29.71S WCI  15
DEVILS LAKE    FAIR      27  21  78 SW9       29.67R WCI  18
$$

NDZ022-023-025-028>030-036>039-047>053-180400-
SOUTHEAST NORTH DAKOTA

CITY           SKY/WX    TMP DP  RH WIND       PRES   REMARKS
FARGO          CLOUDY    23  18  81 S18       29.80F WCI   9
JAMESTOWN      FAIR      28  18  66 NW5       29.74R
$$




USA.gov is the U.S. government's official web portal to all federal, state and local government web resources and services.